Location: Albuquerque Trailhead
(34.7934°N, 106.3736°W)
Time: 11:28:26
(UTC+00:00)

Exosat Rocket - Pass Details

Date: 31 October 2021
Orbit: 759 x 2516 km, 72.3° (Epoch: 08 December)

Event Time Altitude Azimuth Distance (km) Brightness Sun altitude
Exits shadow 10:17:06 64° 168° (SSE) 1,952 5.3 -39.1°
Maximum altitude 10:19:03 78° 105° (ESE) 1,915 5.3 -38.7°
Drops below altitude 10° 10:32:00 10° 22° (NNE) 4,944 7.9 -36.1°
Sets 10:36:00 0° 22° (NNE) 6,085 8.4 -35.3°
